This is the latest recevied weather packets stored in our database for station/object ON7EQ-13. If no packets are shown the sender has not sent any weather packets the latest 10 day(s).
| Time | Temp. | Humidity | Pressure | Rain* | Wind** | Luminosity | Snow |
|---|---|---|---|---|---|---|---|
| 1777494194 | 14.44° C | 43% | 1023.1 hPa | - | - | - | - |
| 1777493597 | 14.44° C | 43% | 1023 hPa | - | - | - | - |
| 1777492994 | 15° C | 43% | 1022.9 hPa | - | - | - | - |
| 1777492395 | 15° C | 42% | 1022.9 hPa | - | - | - | - |
| 1777491794 | 15.56° C | 42% | 1022.7 hPa | - | - | - | - |
| 1777491194 | 15.56° C | 39% | 1022.7 hPa | - | - | - | - |
| 1777490595 | 16.11° C | 41% | 1022.6 hPa | - | - | - | - |
| 1777489994 | 16.11° C | 40% | 1022.5 hPa | - | - | - | - |
| 1777489394 | 16.67° C | 40% | 1022.3 hPa | - | - | - | - |
| 1777488794 | 16.67° C | 39% | 1022.3 hPa | - | - | - | - |
| 1777488194 | 17.22° C | 38% | 1022.1 hPa | - | - | - | - |
| 1777487594 | 17.22° C | 38% | 1022 hPa | - | - | - | - |
| 1777486994 | 17.78° C | 37% | 1021.9 hPa | - | - | - | - |
| 1777486394 | 18.33° C | 36% | 1021.8 hPa | - | - | - | - |
| 1777485794 | 19.44° C | 34% | 1021.7 hPa | - | - | - | - |
| 1777485195 | 20° C | 34% | 1021.7 hPa | - | - | - | - |
| 1777484595 | 19.44° C | 34% | 1021.7 hPa | - | - | - | - |
| 1777483994 | 20.56° C | 33% | 1021.6 hPa | - | - | - | - |
| 1777483394 | 21.11° C | 32% | 1021.7 hPa | - | - | - | - |
| 1777482794 | 21.67° C | 33% | 1021.7 hPa | - | - | - | - |
| 1777482195 | 21.67° C | 32% | 1021.6 hPa | - | - | - | - |
| 1777481594 | 22.22° C | 32% | 1021.7 hPa | - | - | - | - |
| 1777480994 | 22.22° C | 32% | 1021.6 hPa | - | - | - | - |
| 1777480394 | 22.78° C | 32% | 1021.7 hPa | - | - | - | - |
| 1777479794 | 22.78° C | 33% | 1021.8 hPa | - | - | - | - |
* Rain since midnight (hover to see other rain measurements)
** Current wind speed in m/s (hover to see current wind gust speed)